User: anonymous   Login
Location: Unspecified
(0.0000°N, 0.0000°E)
Time: 02:49:00
(UTC+00:00)
Language:

PLEIADES 1B - Orbit

View from above orbital plane
View from above orbital plane
View from above satellite
View from above satellite

Ground track
Ground track

The orbit data is extracted from the following two-line orbital elements,

1 39019U 12068A   17293.78155552  .00000003  00000-0  10520-4 0  9994
2 39019  98.1920   7.2855 0001360  83.6167 276.5178 14.58556483260026
Epoch (UTC): 20 October 2017 18:45:26
Eccentricity: 0.0001360
inclination: 98.1920°
perigee height: 697 km
apogee height: 699 km
right ascension of ascending node: 7.2855°
argument of perigee: 83.6167°
revolutions per day: 14.58556483
mean anomaly at epoch: 276.5178°
orbit number at epoch: 26002

The dashed part of the orbit path shows where the satellite is in the earth's shadow,  

DLR